DW7214 Weather Reports


Display with metric or nautical units.
time (UTC)temp
F
wind
direction
speed
MPH
gust
MPH
rain 1hr
in
rain 24hr
in
rain mn
in
humidity
%
barometer
mb
20260506141526 52 138 1.0 2.0 0.00 0.00 0.00 91 1021.1
20260506140013 51 119 0.0 2.0 0.00 0.00 0.00 92 1020.8
20260506134520 51 86 0.0 2.0 0.00 0.00 0.00 92 1020.4
20260506133025 51 119 0.0 2.0 0.00 0.00 0.00 91 1020.4
20260506131524 52 119 0.0 0.0 0.00 0.00 0.00 90 1020.3
20260506130012 52 119 0.0 2.0 0.00 0.00 0.00 90 1020.2
20260506124516 53 119 0.0 2.0 0.00 0.00 0.00 90 1020.2
20260506123020 53 64 0.0 2.0 0.00 0.00 0.00 89 1020.0
20260506121523 54 64 1.0 2.0 0.00 0.00 0.00 89 1020.0
20260506120027 54 70 0.0 2.0 0.00 0.00 0.00 89 1020.1
20260506114517 53 59 0.0 2.0 0.00 0.00 0.00 89 1019.9
20260506113018 53 138 0.0 2.0 0.00 0.00 0.00 89 1019.7
20260506111523 53 138 0.0 2.0 0.00 0.00 0.00 89 1019.6
20260506110030 53 90 0.0 2.0 0.00 0.00 0.00 89 1019.4
20260506104527 53 122 1.0 2.0 0.00 0.00 0.00 89 1019.2
20260506103018 53 117 0.0 2.0 0.00 0.00 0.00 89 1019.0
20260506101520 53 194 1.0 2.0 0.00 0.00 0.00 89 1018.9
20260506100023 53 88 0.0 3.0 0.00 0.00 0.00 89 1018.8
20260506094526 53 74 0.0 2.0 0.00 0.00 0.00 89 1018.8
20260506093030 53 121 1.0 5.0 0.00 0.00 0.00 88 1018.6
20260506091523 53 88 1.0 6.0 0.00 0.00 0.00 88 1018.6
20260506090023 53 110 1.0 3.0 0.00 0.00 0.00 88 1018.6
20260506084526 54 120 1.0 3.0 0.00 0.00 0.00 88 1018.5
20260506083025 54 118 0.0 5.0 0.00 0.00 0.00 87 1018.5
20260506081525 54 134 1.0 3.0 0.00 0.00 0.00 87 1018.5
20260506073012 54 133 1.0 3.0 0.00 0.00 0.00 87 1018.2
20260506071517 54 161 1.0 3.0 0.00 0.00 0.00 87 1018.0
20260506061518 55 115 1.0 4.0 0.00 0.00 0.00 84 1017.8
20260506044530 60 46 1.0 2.0 0.00 0.00 0.00 80 1017.4
20260506043023 60 246 0.0 2.0 0.00 0.00 0.00 83 1017.2
20260506041512 60 242 0.0 2.0 0.00 0.00 0.00 83 1017.1
20260506040042 60 241 0.0 2.0 0.00 0.00 0.00 83 1016.7
20260506034523 60 229 1.0 2.0 0.00 0.00 0.00 82 1016.5
20260506033022 61 208 0.0 2.0 0.00 0.00 0.00 80 1016.4
20260506031540 62 154 0.0 2.0 0.00 0.00 0.00 77 1016.3
20260506030012 64 119 0.0 2.0 0.00 0.00 0.00 74 1016.2
20260506024520 65 119 0.0 2.0 0.00 0.00 0.00 73 1016.0
20260506023021 65 56 0.0 2.0 0.00 0.00 0.00 70 1015.8
20260506021524 65 74 0.0 4.0 0.00 0.00 0.00 69 1015.8
20260506020010 66 50 0.0 3.0 0.00 0.00 0.00 69 1016.0
20260506014515 66 268 0.0 2.0 0.00 0.00 0.00 69 1015.8
20260506013021 66 340 1.0 4.0 0.00 0.00 0.00 68 1016.0
20260506011523 65 302 2.0 4.0 0.00 0.00 0.00 68 1016.0
20260506010012 66 295 1.0 4.0 0.00 0.00 0.00 69 1016.0
20260506004511 66 303 1.0 4.0 0.00 0.00 0.00 68 1016.1
20260506003008 66 337 3.0 6.0 0.00 0.00 0.00 67 1016.0
20260506001504 66 303 3.0 6.0 0.00 0.00 0.00 68 1016.1
20260506000004 66 311 2.0 7.0 0.00 0.00 0.00 69 1016.2
20260505234506 66 17 5.0 10.0 0.00 0.00 0.00 69 1016.3
20260505233004 66 351 3.0 7.0 0.00 0.00 0.00 70 1016.5
20260505231504 65 360 1.0 4.0 0.00 0.00 0.00 69 1016.5
20260505230006 65 36 1.0 7.0 0.00 0.00 0.00 67 1016.5
20260505224506 65 240 1.0 6.0 0.00 0.00 0.00 68 1016.7
20260505223005 65 327 2.0 5.0 0.00 0.00 0.00 67 1016.7
20260505221509 65 314 2.0 4.0 0.00 0.00 0.00 68 1016.8
20260505220007 65 352 1.0 4.0 0.00 0.00 0.00 67 1017.0
20260505214506 64 49 1.0 4.0 0.00 0.00 0.00 70 1017.1
20260505213008 63 57 1.0 4.0 0.00 0.00 0.00 69 1017.2
20260505211508 63 351 1.0 4.0 0.00 0.00 0.00 71 1017.3
20260505210007 63 65 1.0 3.0 0.00 0.00 0.00 69 1017.3
20260505204509 63 298 2.0 4.0 0.00 0.00 0.00 69 1017.4
20260505203008 62 49 1.0 4.0 0.00 0.00 0.00 70 1017.5
20260505201507 61 184 1.0 2.0 0.00 0.00 0.00 70 1017.6
20260505200015 61 329 1.0 2.0 0.00 0.00 0.00 71 1017.6
20260505194510 60 207 1.0 3.0 0.00 0.00 0.00 75 1017.7
20260505193010 59 63 1.0 3.0 0.00 0.00 0.00 74 1017.8
20260505191511 59 5 1.0 3.0 0.00 0.00 0.00 75 1017.8
20260505190012 58 234 1.0 3.0 0.00 0.00 0.00 76 1017.8
20260505184510 58 5 2.0 4.0 0.00 0.00 0.00 77 1017.7
20260505183019 58 287 1.0 4.0 0.00 0.00 0.00 77 1017.5
20260505181514 58 242 1.0 4.0 0.00 0.00 0.00 76 1017.5
20260505180012 58 344 1.0 3.0 0.00 0.00 0.00 76 1017.4
20260505174512 58 234 1.0 2.0 0.00 0.00 0.00 78 1017.4
20260505173014 57 340 0.0 2.0 0.00 0.00 0.00 78 1017.4
20260505171518 57 205 1.0 4.0 0.00 0.00 0.00 78 1017.3
20260505170017 57 232 0.0 2.0 0.00 0.00 0.00 79 1017.3
20260505164513 57 235 1.0 3.0 0.00 0.00 0.00 80 1017.1
20260505163014 56 221 2.0 3.0 0.00 0.00 0.00 79 1017.0
20260505161516 55 217 0.0 2.0 0.00 0.00 0.00 87 1017.1
20260505153006 53 117 1.0 2.0 0.00 0.00 0.00 89 1017.0
20260505151509 52 131 0.0 1.0 0.00 0.00 0.00 91 1017.0